Bad Axe, MI

2:35 PM EDT on April 23, 2017 (GMT -0400)
Huron County Memorial

Weather History for KBAX - December, 2011

Change the Weather History Date:

Friday, December 9, 2011

  Actual Average (KP58) Record (KP58)
Temperature  
Mean Temperature 26 °F -  
Max Temperature 32 °F 35 °F 51 °F (1999)
Min Temperature 21 °F 27 °F 10 °F (2002)
Degree Days  
Heating Degree Days 38    
Moisture  
Dew Point 19 °F    
Average Humidity 73    
Maximum Humidity 93    
Minimum Humidity 47    
Precipitation  
Precipitation 0.00 in - - ()
Sea Level Pressure  
Sea Level Pressure 30.15 in    
Wind  
Wind Speed 9 mph (WSW)    
Max Wind Speed 17 mph    
Max Gust Speed 24 mph    
Visibility 8 miles    
Events Snow    
Averages and records for this station are not official NWS values.
T = Trace of Precipitation, MM = Missing Value Source: NWS Daily Summary

Daily Weather History Graph

Daily Weather History Graph

Search for Another Location

Airport or City:

Trip Planner

Search our weather history database for the weather conditions in past years. The results will help you decide how hot, cold, wet, or windy it might be!

Date:

Astronomy

Dec. 09, 2011 Rise Set
Actual Time 7:53 AM EST 4:54 PM EST
Civil Twilight 7:21 AM EST 5:27 PM EST
Nautical Twilight 6:44 AM EST 6:03 PM EST
Astronomical Twilight 6:10 AM EST 6:38 PM EST
Moon 4:16 PM EST (12/9) 7:00 AM EST (12/9)
Length of Visible Light 10h 06m
Length of Day
9h 00m
Waxing Gibbous, 99% of the Moon is Illuminated
Dec 9
Waxing Gibbous
Dec 10
Full
Dec 17
Last Quarter
Dec 24
New
Jan 1
First Quarter

Hourly Weather History & Observations

Time (EST) Temp. Windchill Dew Point Humidity Pressure Visibility Wind Dir Wind Speed Gust Speed Precip Events Conditions
12:14 AM 32.0 °F 23.6 °F 26.6 °F 80% 30.11 in 10.0 mi SW 10.4 mph - N/A   Mostly Cloudy
12:34 AM 32.0 °F 24.2 °F 26.6 °F 80% 30.11 in 10.0 mi SW 9.2 mph - N/A   Mostly Cloudy
12:53 AM 32.0 °F 25.6 °F 26.6 °F 80% 30.11 in 10.0 mi SW 6.9 mph - N/A   Mostly Cloudy
1:14 AM 32.0 °F 25.6 °F 26.6 °F 80% 30.10 in 10.0 mi SW 6.9 mph - N/A   Mostly Cloudy
1:33 AM 32.0 °F 25.6 °F 26.6 °F 80% 30.10 in 10.0 mi SW 6.9 mph - N/A   Mostly Cloudy
1:53 AM 32.0 °F 24.8 °F 26.6 °F 80% 30.10 in 10.0 mi SW 8.1 mph - N/A   Mostly Cloudy
2:14 AM 32.0 °F 24.8 °F 26.6 °F 80% 30.10 in 10.0 mi SW 8.1 mph - N/A   Mostly Cloudy
2:33 AM 32.0 °F 24.8 °F 26.6 °F 80% 30.10 in 10.0 mi SW 8.1 mph - N/A   Overcast
3:14 AM 32.0 °F 26.4 °F 26.6 °F 80% 30.10 in 10.0 mi SW 5.8 mph - N/A   Overcast
3:33 AM 32.0 °F 26.4 °F 26.6 °F 80% 30.10 in 10.0 mi SW 5.8 mph - N/A   Overcast
3:53 AM 32.0 °F 25.6 °F 26.6 °F 80% 30.09 in 10.0 mi SW 6.9 mph - N/A   Overcast
4:14 AM 32.0 °F 26.4 °F 26.6 °F 80% 30.09 in 7.0 mi SW 5.8 mph - N/A   Overcast
4:33 AM 30.2 °F 23.4 °F 26.6 °F 86% 30.09 in 3.0 mi WSW 6.9 mph - N/A Snow Light Snow
4:54 AM 30.2 °F 22.6 °F 28.4 °F 93% 30.10 in 3.0 mi WSW 8.1 mph - N/A Snow Light Snow
5:14 AM 30.2 °F 23.4 °F 28.4 °F 93% 30.10 in 2.5 mi WSW 6.9 mph - N/A Snow Light Snow
5:33 AM 30.2 °F 25.4 °F 28.4 °F 93% 30.10 in 1.8 mi West 4.6 mph - N/A Snow Light Snow
5:54 AM 30.2 °F 22.6 °F 28.4 °F 93% 30.10 in 2.5 mi West 8.1 mph - N/A Snow Light Snow
6:14 AM 30.2 °F 23.4 °F 26.6 °F 86% 30.11 in 2.0 mi West 6.9 mph - N/A Snow Light Snow
6:33 AM 28.4 °F 20.4 °F 26.6 °F 93% 30.12 in 3.0 mi WNW 8.1 mph - N/A Snow Light Snow
6:54 AM 28.4 °F 21.2 °F 26.6 °F 93% 30.12 in 3.0 mi West 6.9 mph - N/A Snow Light Snow
7:14 AM 28.4 °F 22.2 °F 26.6 °F 93% 30.12 in 7.0 mi West 5.8 mph - N/A   Overcast
7:54 AM 28.4 °F 20.4 °F 23.0 °F 80% 30.13 in 5.0 mi West 8.1 mph - N/A Snow Light Snow
8:14 AM 28.4 °F 20.4 °F 23.0 °F 80% 30.13 in 1.8 mi West 8.1 mph - N/A Snow Light Snow
8:33 AM 26.6 °F 18.2 °F 23.0 °F 86% 30.13 in 1.8 mi West 8.1 mph - N/A Snow Light Snow
8:54 AM 26.6 °F 17.5 °F 23.0 °F 86% 30.14 in 1.8 mi West 9.2 mph - N/A Snow Light Snow
9:14 AM 26.6 °F 18.2 °F 23.0 °F 86% 30.14 in 2.0 mi West 8.1 mph - N/A Snow Light Snow
9:33 AM 26.6 °F 19.1 °F 23.0 °F 86% 30.14 in 7.0 mi West 6.9 mph - N/A Snow Light Snow
9:54 AM 28.4 °F 18.5 °F 21.2 °F 74% 30.15 in 10.0 mi West 11.5 mph - N/A Snow Light Snow
10:13 AM 26.6 °F 16.8 °F 21.2 °F 80% 30.15 in 2.5 mi West 10.4 mph - N/A Snow Light Snow
10:34 AM 26.6 °F 15.7 °F 23.0 °F 86% 30.15 in 2.0 mi West 12.7 mph 16.1 mph N/A Snow Light Snow
10:54 AM 26.6 °F 16.8 °F 21.2 °F 80% 30.15 in 4.0 mi West 10.4 mph - N/A Snow Light Snow
11:14 AM 26.6 °F 16.2 °F 21.2 °F 80% 30.15 in 4.0 mi West 11.5 mph 18.4 mph N/A Snow Light Snow
11:34 AM 26.6 °F 15.2 °F 19.4 °F 74% 30.15 in 10.0 mi West 13.8 mph 19.6 mph N/A   Overcast
11:54 AM 28.4 °F 17.0 °F 19.4 °F 69% 30.15 in 10.0 mi West 15.0 mph 20.7 mph N/A   Overcast
12:13 PM 28.4 °F 16.2 °F 17.6 °F 64% 30.14 in 10.0 mi West 17.3 mph 24.2 mph N/A   Overcast
12:34 PM 26.6 °F 14.7 °F 15.8 °F 64% 30.14 in 10.0 mi West 15.0 mph 21.9 mph N/A   Mostly Cloudy
1:13 PM 28.4 °F 18.0 °F 15.8 °F 59% 30.14 in 10.0 mi WNW 12.7 mph 18.4 mph N/A   Scattered Clouds
1:34 PM 28.4 °F 16.2 °F 15.8 °F 59% 30.13 in 10.0 mi West 17.3 mph 23.0 mph N/A   Mostly Cloudy
1:54 PM 28.4 °F 16.2 °F 15.8 °F 59% 30.14 in 10.0 mi West 17.3 mph 20.7 mph N/A   Mostly Cloudy
2:14 PM 28.4 °F 17.0 °F 14.0 °F 55% 30.14 in 10.0 mi West 15.0 mph 20.7 mph N/A   Scattered Clouds
2:34 PM 26.6 °F 14.3 °F 10.4 °F 51% 30.14 in 10.0 mi West 16.1 mph 20.7 mph N/A   Scattered Clouds
2:54 PM 28.4 °F 16.2 °F 12.2 °F 51% 30.14 in 10.0 mi West 17.3 mph 21.9 mph N/A   Scattered Clouds
3:14 PM 26.6 °F 16.8 °F 12.2 °F 55% 30.15 in 10.0 mi West 10.4 mph 19.6 mph N/A   Scattered Clouds
3:34 PM 28.4 °F 19.7 °F 10.4 °F 47% 30.15 in 10.0 mi West 9.2 mph 17.3 mph N/A   Scattered Clouds
3:54 PM 26.6 °F 15.2 °F 10.4 °F 51% 30.16 in 10.0 mi West 13.8 mph 19.6 mph N/A   Clear
4:14 PM 26.6 °F 16.2 °F 12.2 °F 55% 30.16 in 10.0 mi West 11.5 mph - N/A   Clear
4:34 PM 26.6 °F 19.1 °F 10.4 °F 51% 30.17 in 10.0 mi West 6.9 mph - N/A   Clear
5:14 PM 24.8 °F 16.1 °F 10.4 °F 54% 30.18 in 10.0 mi West 8.1 mph - N/A   Clear
5:34 PM 23.0 °F 13.9 °F 10.4 °F 59% 30.19 in 10.0 mi West 8.1 mph - N/A   Clear
5:53 PM 23.0 °F 17.0 °F 10.4 °F 59% 30.20 in 10.0 mi SW 4.6 mph - N/A   Clear
6:14 PM 23.0 °F 18.4 °F 10.4 °F 59% 30.20 in 10.0 mi WSW 3.5 mph - N/A   Clear
6:34 PM 21.2 °F 14.9 °F 12.2 °F 68% 30.21 in 10.0 mi WSW 4.6 mph - N/A   Clear
6:54 PM 21.2 °F 13.6 °F 12.2 °F 68% 30.23 in 10.0 mi West 5.8 mph - N/A   Scattered Clouds
7:14 PM 21.2 °F 14.9 °F 12.2 °F 68% 30.23 in 10.0 mi West 4.6 mph - N/A   Scattered Clouds
7:34 PM 21.2 °F 12.6 °F 12.2 °F 68% 30.24 in 10.0 mi West 6.9 mph - N/A   Scattered Clouds
7:54 PM 21.2 °F 12.6 °F 12.2 °F 68% 30.25 in 10.0 mi West 6.9 mph - N/A   Clear
8:14 PM 21.2 °F 12.6 °F 12.2 °F 68% 30.26 in 10.0 mi West 6.9 mph - N/A   Clear
8:34 PM 21.2 °F 10.9 °F 12.2 °F 68% 30.26 in 10.0 mi West 9.2 mph - N/A   Clear
8:54 PM 23.0 °F 13.1 °F 10.4 °F 59% 30.27 in 10.0 mi West 9.2 mph - N/A   Clear
9:14 PM 21.2 °F 10.1 °F 10.4 °F 63% 30.27 in 10.0 mi West 10.4 mph - N/A   Clear
9:33 PM 21.2 °F 10.1 °F 10.4 °F 63% 30.27 in 10.0 mi West 10.4 mph - N/A   Clear
9:54 PM 21.2 °F 10.1 °F 10.4 °F 63% 30.27 in 10.0 mi West 10.4 mph 17.3 mph N/A   Clear
10:14 PM 21.2 °F 8.9 °F 10.4 °F 63% 30.28 in 10.0 mi West 12.7 mph 16.1 mph N/A   Clear
10:34 PM 21.2 °F 10.1 °F 10.4 °F 63% 30.28 in 10.0 mi West 10.4 mph 17.3 mph N/A   Scattered Clouds
10:54 PM 21.2 °F 9.5 °F 10.4 °F 63% 30.29 in 10.0 mi West 11.5 mph 17.3 mph N/A   Scattered Clouds
11:13 PM 21.2 °F 11.7 °F 10.4 °F 63% 30.29 in 10.0 mi West 8.1 mph - N/A   Scattered Clouds
11:34 PM 19.4 °F 10.4 °F 8.6 °F 63% 30.29 in 10.0 mi West 6.9 mph - N/A   Clear